Regional Weather Roundup
Issued by NWS

Home | Current Version | Previous Version | Text Only | Print | Product List | Glossary Off
Versions: 1 2 3 4 5 6 7 8 9 10 11 12 13 14 15 16 17 18 19 20 21 22 23 24 25 26 27 28 29 30 31 32 33 34 35 36 37 38 39 40 41 42 43 44 45 46 47 48 49 50

000
ASUS43 KIND 281409
RWRIN

WEATHER ROUNDUP FOR INDIANA
NATIONAL WEATHER SERVICE INDIANAPOLIS IN
1000 AM EDT THU JUL 28 2016

NOTE: "FAIR" INDICATES FEW OR NO CLOUDS BELOW 12,000 FEET WITH NO
SIGNIFICANT WEATHER AND/OR OBSTRUCTIONS TO VISIBILITY.

* - STATION DOES NOT REPORT WEATHER SUCH AS PRECIPITATION OR FOG.

+ - STATION NOT QUALITY CONTROLLED BY THE NATIONAL WEATHER SERVICE.
    USE DATA WITH CAUTION...ESPECIALLY DEWPOINT AND RELATIVE
    HUMIDITY OBSERVATIONS.

INZ001>003-010>013-019-020-281500-
NORTHWEST INDIANA

CITY           SKY/WX    TMP DP  RH WIND       PRES   REMARKS
GARY /AIRPORT/ PTSUNNY   79  73  83 CALM      29.92S
KNOX *+        CLOUDY    73  64  73 CALM      29.92F
LA PORTE +     CLOUDY    80  70  71 CALM      29.94S
MICHIGAN CITY+ CLOUDY    79  70  73 CALM      29.93S
MONTICELLO +   CLOUDY    76  67  74 CALM      29.92S
RENSSELAER +   CLOUDY    73  70  88 CALM      29.92F
VALPARAISO     PTSUNNY   78  70  76 E3        29.93S

$$

LMZ046-743>745-281500-
SOUTHERN LAKE MICHIGAN

STATION/POSITION TIME  TEMP    WIND        PRES    WAVE
                       AIR SEA DIR/SP/G            HT
                 (UTC) (F)     (DEG/KT/KT) (MB)    (FT)
BURNS HARBOR     1300   76        CALM     1013.9R
MICHIGAN CITY    1300   77     110/  2/  2   N/A
5NW MICH CITY    1400   78 78   CALM  /  2   N/A     0

$$

INZ004-005-014>016-021>024-281500-
NORTH CENTRAL INDIANA

CITY           SKY/WX    TMP DP  RH WIND       PRES   REMARKS
ELKHART        CLOUDY    75  70  83 CALM      29.94S
GOSHEN         CLOUDY    77  65  66 N3        29.93F
LOGANSPORT +   PTSUNNY   75  70  83 CALM      29.93F
PERU/GRISSOM   PTSUNNY   77  70  80 CALM      29.91F HAZE
ROCHESTER +    CLOUDY    77  72  83 CALM      29.93F
SOUTH BEND     PTSUNNY   80  67  64 MISG      29.93F
WARSAW +       CLOUDY    73  68  83 CALM      29.93F

$$

INZ006>009-017-018-025>027-281500-
NORTHEAST INDIANA

CITY           SKY/WX    TMP DP  RH WIND       PRES   REMARKS
ANGOLA *+        N/A     77  72  83 CALM      29.93S
AUBURN +       CLOUDY    75  64  69 CALM      29.93F
FORT WAYNE     CLOUDY    78  66  66 VRB3      29.92F
HUNTINGTON +   CLOUDY    74  69  83 CALM      29.92F

$$

INZ028-029-035-036-043>045-051>053-281500-
WEST CENTRAL INDIANA

CITY           SKY/WX    TMP DP  RH WIND       PRES   REMARKS
CRAWFORDSVL +  CLOUDY    74  73  99 CALM      29.93S
GREENCASTLE +  CLOUDY    73  73 100 CALM      29.94S
LAFAYETTE      CLOUDY    77  71  82 CALM      29.91F
TERRE HAUTE    LGT RAIN  76  72  87 SW7       29.92S

$$

INZ030>032-037>040-046>048-054>057-064-065-281500-
CENTRAL INDIANA

CITY           SKY/WX    TMP DP  RH WIND       PRES   REMARKS
ANDERSON       SUNNY     77  68  73 CALM      29.94S
COLUMBUS       MOSUNNY   73  73 100 CALM      29.92F
FISHERS *+     PTSUNNY   77  70  78 CALM      29.92F
INDIANAPOLIS   CLOUDY    77  70  79 SW3       29.93S
-EAGLE CREEK   CLOUDY    77  69  76 CALM      29.92S
KOKOMO *+      CLOUDY    75  66  73 CALM      29.92F
MARION +       CLOUDY    74  69  85 CALM      29.93F HAZE
MT COMFORT *+  CLOUDY    77  70  78 CALM      29.93F
SHELBYVILLE    CLOUDY    76  70  82 CALM      29.92S
ZIONSVILLE +   CLOUDY    74  67  78 CALM      29.94S

$$

INZ033-034-041-042-049-050-058-059-281500-
EAST CENTRAL INDIANA

CITY           SKY/WX    TMP DP  RH WIND       PRES   REMARKS
MUNCIE         PTSUNNY   78  67  68 SW5       29.93S

$$

INZ060-061-067>069-081>083-085>088-281500-
SOUTHWEST INDIANA

CITY           SKY/WX    TMP DP  RH WIND       PRES   REMARKS
EVANSVILLE     CLOUDY    75  72  90 S3        29.93R
HUNTINGBURG *+ CLOUDY    73  70  88 SW5       29.93S
WASHINGTON +   CLOUDY    75  75 100 MISG      29.92S

$$

INZ062-063-066-070>080-084-089>092-281500-
SOUTH CENTRAL AND SOUTHEAST INDIANA

CITY           SKY/WX    TMP DP  RH WIND       PRES   REMARKS
BLOOMINGTON    CLOUDY    75  71  87 VRB3      29.93S
MADISON *+     CLOUDY    72  70  94 CALM      29.94S
NORTH VERNON + CLOUDY   N/A N/A N/A CALM      29.93S
SEYMOUR +      CLOUDY    73  73 100 CALM      29.92S

$$




USA.gov is the U.S. government's official web portal to all federal, state and local government web resources and services.